[[{"header":{"parameterUnit":"m.s-1","parameterCategory":1,"la1":30.2992,"la2":30.254,"lo1":-89.0895,"lo2":-89.0443,"dy":0.0025,"dx":0.0025,"nx":19,"ny":19,"refTime":"2026-04-17T21:00:00:Z","depth":0,"parameterNumber":2,"parameterNumberName":"U-component_of_WINDS"},"data":[0,0,0,-3.9393,-3.9394,-3.9475,-3.9475,-3.9597,-3.9598,0,0,0,0,0,0,0,0,0,0,0,-3.9381,-3.9382,-3.9392,-3.9395,-3.9475,-3.9475,-3.9596,-3.9598,0,0,0,0,0,0,0,0,0,0,0,-3.938,-3.9382,-3.9384,-3.9395,-3.9475,-3.9475,-3.9596,-3.9529,0,0,0,0,0,0,0,0,0,0,-3.9447,-3.9449,-3.9382,-3.9384,-3.9396,-3.9475,-3.9475,-3.9525,-3.9533,-3.9569,0,-3.9605,0,-3.9603,-3.9607,-3.9608,0,0,0,-3.9385,-3.9443,-3.9453,-3.9384,-3.9396,-3.9475,-3.9436,-3.9529,-3.9538,-3.9579,-3.9606,-3.961,-3.9605,-3.9608,-3.9609,-3.9848,-3.985,0,0,-3.9381,-3.9402,-3.9447,-3.946,-3.9449,-3.9434,-3.9439,-3.9534,-3.9565,-3.9606,-3.9613,-3.9607,-3.9609,-3.961,-3.9847,-3.9849,0,0,0,-3.9375,-3.94,-3.9407,-3.9455,-3.9468,-3.9436,-3.9442,-3.956,-3.9561,-3.9614,-3.9609,-3.961,-3.9612,-3.9845,-3.9847,-3.9946,0,0,0,-3.9371,-3.9396,-3.9406,-3.9419,-3.9467,-3.9516,-3.9466,-3.9555,-3.9565,-3.9608,-3.961,-3.9613,-3.9843,-3.9846,-3.9939,-3.9989,0,0,0,-3.9372,-3.9395,-3.9411,-3.942,-3.9456,-3.9513,-3.9519,-3.9556,-3.9562,-3.9608,-3.9614,-3.9842,-3.9846,-3.9934,-3.998,-4.0059,0,0,0,-3.9378,-3.9497,-3.9413,-3.9544,-3.9455,-3.9573,-3.9518,-3.9605,-3.9656,-3.9611,-3.9843,-3.9847,-3.9932,-3.9974,-4.0053,-4.0131,-4.0165,0,0,-3.954,-3.9518,-3.9593,-3.952,-3.9659,-3.9559,-3.9712,-3.9739,-3.9723,-3.9807,-3.9813,-3.9941,-3.9979,-4.0058,-4.0345,-4.0373,0,0,0,-3.9652,-3.9707,-3.9738,-3.9788,-3.9811,-3.9835,-3.9835,-3.9844,-3.9915,-3.9771,-3.999,-4.0012,-4.0057,-4.0093,-4.0117,-4.0154,-3.9864,-3.9864,-3.9864,-3.9914,-3.9887,-4.001,-3.9994,-4.0042,-4.0041,-4.0078,-4.009,-4.0049,-4.0102,-4.0127,-4.0305,-4.0348,-4.0365,-4.0405,-4.0164,-4.0165,-4.0165,-4.0166,-4.015,-4.0224,-4.0166,-4.0265,-4.0236,-4.0319,-4.0321,-4.029,-4.0362,-4.0284,-4.0322,-4.024,-4.0396,-4.0429,-4.0173,-4.0171,-4.0171,-4.017,-4.0169,-4.032,-4.0351,-4.036,-4.0429,-4.0484,-4.0462,-4.0535,-4.0505,-4.0478,-4.0516,-4.054,-4.0538,-4.0534,-4.0529,-4.0529,-4.053,-4.053,-4.0531,-4.0531,-4.0494,-4.0501,-4.0566,-4.06,-4.0627,-4.066,-4.0658,-4.0684,-4.0706,-4.0679,-4.0679,-4.0633,-4.0416,-4.0362,-4.0541,-4.0539,-4.0538,-4.0537,-4.0536,-4.0747,-4.0685,-4.0785,-4.0813,-4.0849,-4.0907,-4.0867,-4.0923,-4.094,-4.0976,-4.0921,-4.0765,-4.074,-4.0721,-4.0677,-4.0926,-4.0926,-4.0926,-4.0926,-4.0892,-4.0875,-4.0971,-4.1018,-4.1059,-4.1033,-4.1147,-4.1147,-4.1136,-4.1145,-4.1104,-4.1042,-4.1025,-4.101,-4.0985,-4.0944,-4.1255,-4.1255,-4.1256,-4.1046,-4.1033,-4.1136,-4.1125,-4.1151,-4.1174,-4.128,-4.1335,-4.131,-4.1268,-4.1152,-4.1138,-4.1038,-4.1006,-4.0965,-4.0927,-4.085,0,0]},{"header":{"parameterUnit":"m.s-1","parameterCategory":1,"la1":30.2992,"la2":30.254,"lo1":-89.0895,"lo2":-89.0443,"dy":0.0025,"dx":0.0025,"nx":19,"ny":19,"refTime":"2026-04-17T21:00:00:Z","depth":0,"parameterNumber":3,"parameterNumberName":"V-component_of_WINDS"},"data":[0,0,0,-7.132,-7.1323,-7.1467,-7.1467,-7.1659,-7.1661,0,0,0,0,0,0,0,0,0,0,0,-7.1286,-7.1287,-7.132,-7.1324,-7.1466,-7.1467,-7.1659,-7.1661,0,0,0,0,0,0,0,0,0,0,0,-7.1285,-7.1287,-7.1289,-7.1324,-7.1466,-7.1467,-7.1658,-7.1546,0,0,0,0,0,0,0,0,0,0,-7.1406,-7.1382,-7.1286,-7.1289,-7.1325,-7.1466,-7.1467,-7.1541,-7.1553,-7.1599,0,-7.1644,0,-7.1656,-7.1675,-7.1675,0,0,0,-7.1317,-7.1372,-7.1404,-7.1289,-7.1327,-7.1466,-7.14,-7.1548,-7.1562,-7.1616,-7.1647,-7.1653,-7.1659,-7.1676,-7.1677,-7.1971,-7.1972,0,0,-7.1309,-7.1315,-7.1394,-7.1414,-7.1395,-7.1396,-7.1405,-7.1556,-7.1589,-7.1647,-7.1658,-7.1662,-7.1677,-7.1679,-7.1969,-7.1971,0,0,0,-7.1291,-7.131,-7.1337,-7.1406,-7.1431,-7.14,-7.141,-7.1582,-7.1591,-7.166,-7.1665,-7.1678,-7.1681,-7.1967,-7.197,-7.2063,0,0,0,-7.1286,-7.1299,-7.1334,-7.1339,-7.1429,-7.1509,-7.1433,-7.1581,-7.1597,-7.1664,-7.1679,-7.1683,-7.1965,-7.1968,-7.2056,-7.2105,0,0,0,-7.1273,-7.1298,-7.1322,-7.134,-7.1402,-7.1507,-7.1524,-7.1584,-7.1601,-7.1675,-7.1684,-7.1964,-7.1968,-7.205,-7.2096,-7.2187,0,0,0,-7.1261,-7.1399,-7.1323,-7.1478,-7.1401,-7.1563,-7.1523,-7.1642,-7.1717,-7.168,-7.1965,-7.1969,-7.2048,-7.209,-7.2181,-7.2267,-7.2303,0,0,-7.1438,-7.142,-7.1511,-7.1448,-7.1626,-7.1541,-7.1732,-7.1792,-7.1791,-7.191,-7.1917,-7.2058,-7.2095,-7.2186,-7.2498,-7.2527,0,0,0,-7.1569,-7.1635,-7.1681,-7.1754,-7.1806,-7.1855,-7.1886,-7.1909,-7.201,-7.1855,-7.2114,-7.2136,-7.2189,-7.223,-7.2254,-7.23,-7.1988,-7.1988,-7.1987,-7.1828,-7.1823,-7.1974,-7.1987,-7.2058,-7.2091,-7.2148,-7.2184,-7.2154,-7.2216,-7.2252,-7.2443,-7.2491,-7.2509,-7.2557,-7.2295,-7.2295,-7.2295,-7.2296,-7.2089,-7.2182,-7.2143,-7.2276,-7.227,-7.2379,-7.2416,-7.2392,-7.2493,-7.2414,-7.246,-7.2377,-7.2541,-7.2582,-7.2303,-7.2301,-7.2301,-7.23,-7.2299,-7.226,-7.2304,-7.2332,-7.244,-7.2522,-7.2528,-7.2629,-7.2617,-7.2607,-7.2652,-7.2691,-7.2689,-7.2688,-7.2671,-7.2672,-7.2672,-7.2673,-7.2673,-7.2674,-7.2428,-7.2456,-7.2544,-7.2613,-7.266,-7.272,-7.2754,-7.2799,-7.2846,-7.2829,-7.283,-7.2796,-7.2557,-7.2499,-7.2684,-7.2682,-7.2681,-7.268,-7.2679,-7.2698,-7.2636,-7.2772,-7.282,-7.29,-7.2984,-7.2968,-7.3062,-7.3097,-7.3147,-7.3103,-7.2928,-7.2908,-7.2888,-7.284,-7.3103,-7.3103,-7.3103,-7.3103,-7.2845,-7.2834,-7.2972,-7.305,-7.3123,-7.3124,-7.3277,-7.3305,-7.3323,-7.3345,-7.3304,-7.3239,-7.3219,-7.3211,-7.3184,-7.3139,-7.3472,-7.3472,-7.3473,-7.3012,-7.3009,-7.3143,-7.3163,-7.3226,-7.3279,-7.3423,-7.3512,-7.3519,-7.3488,-7.3362,-7.3346,-7.324,-7.3205,-7.3173,-7.3132,-7.3049,0,0]}]]